Location: Gniazdowice
(50.2124°N, 20.2673°E)
Time: 23:06:35
(UTC+00:00)

Cosmos 2333 Rocket - Pass Details

Date: 23 May 2024
Orbit: 838 x 863 km, 70.8° (Epoch: 22 June)

Event Time Altitude Azimuth Distance (km) Brightness Sun altitude
Rises 00:46:44 0° 330° (NNW) 3,424 5.8 -13.5°
Reaches altitude 10° 00:49:12 10° 332° (NNW) 2,488 5.0 -13.3°
Maximum altitude 00:54:56 80° 59° (ENE) 873 2.4 -12.8°
Drops below altitude 10° 01:00:40 10° 148° (SSE) 2,489 4.4 -12.2°
Sets 01:03:08 0° 149° (SSE) 3,424 5.1 -12.0°
